COSMOS 1867 COOLANT

Satellite information

Favourite Embed

Satellite Type and Status

DEBRISIN ORBIT

Key statistics

Satellite COSMOS 1867 COOLANT at a glance.

Uptime

13820

Days in orbit

Revolutions

≈ 14.3

Per day

Orbit

LEO

Low Earth Orbit

Inclination

65.0

Latest

Satellite identification and parameters

Extended collection of information and parameters for COSMOS 1867 COOLANT.

Object identification

Identified? True

Debris? False

Object name: COSMOS 1867 COOLANT

International designator: 1987-060AL

Object number (NORAD): 39673

Object ID (CCSDS): 39673

Country: COMMONWEALTH OF INDEPENDENT STATES (CIS)

Current information (Y/N): Y

RCS size: SMALL

Orbital parameters

Period: 100.459 minutes

Inclination: 65.0119 deg

SMA: 7158.478 km

Apoapsis: 792.56 km

Periapsis: 768.125 km

RAAN: 64.9537 deg

Eccentricy: 0.0017067

Argument of periapsis: 257.394 deg

Mean anomaly: 102.5237 deg

Mean motion: 14.33414368 rev/day

Mean motion (dot): 0.00000378 rev/day2

B* drag term: 0.00017291 1/REarth

Two-line elements (TLE)

Creation date: May 10, 2025, 5:27 p.m.

Reference frame: TEME

Reference center: EARTH

Epoch: May 10, 2025, 12:45 p.m. UTC

TLE line 0: 0 COSMOS 1867 COOLANT

TLE line 1: 1 39673U 87060AL 25130.53142399 .00000378 00000-0 17291-3 0 9997

TLE line 2: 2 39673 65.0119 64.9537 0017067 257.3940 102.5237 14.33414368579184

Live tracking on map

Real-time ground track for satellite COSMOS 1867 COOLANT.

In-orbit conjunctions

A list of the most updated potential collisions computed for object COSMOS 1867 COOLANT.

Target Orbit TCA Probability of collision Miss distance Type
CZ-6A DEB LEO 2024-11-28 11:07:25 0.0003603755 221.0 (m) DEBRIS
THOR ABLESTAR DEB LEO 2024-11-11 23:10:59 0.0002498464 109.0 (m) DEBRIS
COSMOS 249 DEB LEO 2024-09-26 15:08:48 0.0004493109 377.0 (m) DEBRIS
FENGYUN 1C DEB SSO 2024-05-29 20:44:13 0.0001276886 17.0 (m) DEBRIS

Associated space launch

Nuclear-powered magnetospheric research satellite

COSMOS 1867 COOLANT was lifted into orbit during the mission ‘Tsiklon-2 | Plasma-A 2’, on board a Tsiklon-2 space rocket.

The launch took place on July 10, 1987, 3:35 p.m. from 90.

For more information about the launch, click the button.

Launch to space Tsiklon-2 | Plasma-A 2
Tsiklon-2 | Plasma-A 2

Agency: N/A

Status: Launch Successful

Launch date: July 10, 1987, 3:35 p.m. UTC

Rocket: Tsiklon-2

Launch pad: 90

Location: Baikonur Cosmodrome, Republic of Kazakhstan

...

Latest news about this satellite

There are no fresh news available about this satellite. Check back as we update our databases every day.


Newsletter sign-up

Weekly statistics, charts and insights to help you stay on top of the space industry.